Location: Rounton
(54.4000°N, 1.3500°W)
Time: 07:17:55
(UTC+00:00)

Vanguard 1 Rocket - Pass Details

Date: 03 December 2021
Orbit: 651 x 4224 km, 34.3° (Epoch: 19 January)

Event Time Altitude Azimuth Distance (km) Brightness Sun altitude
Rises 02:29:30 0° 213° (SSW) 4,739 - -46.7°
Reaches altitude 10° 02:32:47 10° 200° (SSW) 4,178 - -46.3°
Exits shadow 02:40:28 27° 159° (SSE) 3,909 10.4 -45.3°
Maximum altitude 02:42:15 27° 148° (SSE) 4,059 10.6 -45.1°
Drops below altitude 10° 02:57:03 10° 101° (ESE) 6,678 12.2 -43.2°
Sets 03:04:19 0° 93° (E) 8,136 12.9 -42.2°
